This is the latest recevied weather packets stored in our database for station/object KB9ZGZ. If no packets are shown the sender has not sent any weather packets the latest 10 day(s).
| Time | Temp. | Humidity | Pressure | Rain* | Wind** | Luminosity | Snow |
|---|---|---|---|---|---|---|---|
| 1777410956 | 17.22° C | 70% | 1010.7 hPa | 0.25 mm | - | - | - |
| 1777410052 | 17.22° C | 72% | 1010.7 hPa | 0.25 mm | - | - | - |
| 1777409158 | 17.22° C | 73% | 1010.4 hPa | 0.25 mm | - | - | - |
| 1777408262 | 16.67° C | 73% | 1010.5 hPa | 0.25 mm | - | - | - |
| 1777407349 | 16.67° C | 73% | 1010.6 hPa | 0.25 mm | - | - | - |
| 1777406455 | 16.67° C | 72% | 1011.1 hPa | 0.25 mm | - | - | - |
| 1777405548 | 16.67° C | 71% | 1011 hPa | 0.25 mm | - | - | - |
| 1777404642 | 17.22° C | 71% | 1010.6 hPa | 0.25 mm | - | - | - |
| 1777403743 | 16.67° C | 73% | 1011 hPa | 0.25 mm | - | - | - |
| 1777402838 | 16.67° C | 72% | 1010.6 hPa | 0.25 mm | - | - | - |
| 1777401946 | 16.67° C | 78% | 1010.6 hPa | 0.25 mm | - | - | - |
| 1777401035 | 16.67° C | 75% | 1011 hPa | 0.25 mm | - | - | - |
| 1777400138 | 16.11° C | 74% | 1011.1 hPa | 0.25 mm | - | - | - |
| 1777399228 | 16.11° C | 80% | 1011.6 hPa | 0 mm | - | - | - |
| 1777398327 | 15.56° C | 76% | 1012.2 hPa | 0 mm | - | - | - |
| 1777397425 | 15° C | 76% | 1012.3 hPa | 0 mm | - | - | - |
| 1777396529 | 15.56° C | 78% | 1012.7 hPa | 0 mm | - | - | - |
| 1777395619 | 14.44° C | 78% | 1012.8 hPa | 0 mm | - | - | - |
| 1777394734 | 14.44° C | 78% | 1013.2 hPa | 0.51 mm | - | - | - |
| 1777393816 | 13.89° C | 77% | 1013.3 hPa | 0.51 mm | - | - | - |
| 1777392914 | 13.89° C | 76% | 1013.2 hPa | 0.51 mm | - | - | - |
| 1777392012 | 13.89° C | 79% | 1013.1 hPa | 0.51 mm | - | - | - |
| 1777391111 | 13.89° C | 78% | 1012.9 hPa | 0.51 mm | - | - | - |
| 1777390211 | 13.89° C | 76% | 1012.4 hPa | 0.51 mm | - | - | - |
| 1777389311 | 13.89° C | 79% | 1011.7 hPa | 0.51 mm | - | - | - |
* Rain since midnight (hover to see other rain measurements)
** Current wind speed in m/s (hover to see current wind gust speed)